Regional Weather Roundup
Issued by NWS

Home | Current Version | Previous Version | Text Only | Print | Product List | Glossary On
Versions: 1 2 3 4 5 6 7 8 9 10 11 12 13 14 15 16 17 18 19 20 21 22 23 24 25 26 27 28 29 30 31 32 33 34 35 36 37 38 39 40 41 42 43 44 45 46 47 48 49 50
000
ASUS43 KFSD 221010
RWRSD

WEATHER ROUNDUP FOR SOUTH DAKOTA
NATIONAL WEATHER SERVICE SIOUX FALLS SD
500 AM CDT TUE AUG 22 2017

NOTE: "FAIR" INDICATES FEW OR NO CLOUDS BELOW 12,000 FEET WITH NO
SIGNIFICANT WEATHER AND/OR OBSTRUCTIONS TO VISIBILITY.


SDZ001>005-009-010-012>017-221100-
NORTHWEST AND NORTH CENTRAL SOUTH DAKOTA

CITY           SKY/WX    TMP DP  RH WIND       PRES   REMARKS
BUFFALO          N/A     55  39  54 SW3       30.15F
FAITH            N/A     55  45  68 W5        30.20R
$$

SDZ012>016-024>037-041>051-057-063-072>074-221100-
SOUTHWEST AND SOUTH CENTRAL SOUTH DAKOTA

CITY           SKY/WX    TMP DP  RH WIND       PRES   REMARKS
RAPID CTY ARPT CLEAR     49  41  74 NW5       30.22S
PIERRE         CLEAR     52  46  80 W3        30.15R
CUSTER         CLEAR     46  34  62 NW5       30.31F
ELLSWORTH AFB  CLEAR     55  40  57 CALM      30.21F
PHILIP         CLEAR     46  43  89 W8        30.19R
SPEARFISH      FAIR      50  39  66 CALM      30.24F
WINNER         FAIR      55  51  86 SW5       30.17R
$$

SDZ004>011-016>023-039-040-221100-
NORTHEAST SOUTH DAKOTA

CITY           SKY/WX    TMP DP  RH WIND       PRES   REMARKS
ABERDEEN       CLEAR     47  44  90 W5        30.10S
WATERTOWN      CLEAR     50  49  96 W8        30.08R
BROOKINGS      CLEAR     53  50  89 CALM      30.09S
SISSETON         N/A     50  49  96 CALM      30.04S
$$

SDZ017-020-022-023-036>040-048>070-221100-
SOUTHEAST SOUTH DAKOTA

CITY           SKY/WX    TMP DP  RH WIND       PRES   REMARKS
SIOUX FALLS    CLEAR     57  54  89 N8        30.09R
HURON          CLEAR     49  47  93 W3        30.12R
CHAMBERLAIN    CLEAR     52  51  95 SW3       30.16R
MITCHELL       CLEAR     52  49  89 NW7       30.13R
YANKTON        CLEAR     56  54  93 NW9       30.11R
$$

ABBREVIATIONS USED IN REMARKS
   TC - TEMPERATURE IN CELSIUS
  WCI - WIND CHILL INDEX
   HX - HEAT INDEX
  VSB - VISIBILITY





USA.gov is the U.S. government's official web portal to all federal, state and local government web resources and services.